When you browse on this site, cookies collect data to enhance your experience and personalize the content and advertising you see.
Visit our Privacy Policy to learn more. By continuing to use the site, you agree to this use of cookies and data.
  • In Deutschland
  • Länderverzeichnis
  • Für 7 Tage
  • Wassertemperatur
  • Satellitenkarten
  • Wetterkarte
  • Widgets
  • user-avatar
    Anmelden

    Stündliche Wetter Wernerowo

    Heute, 21 Februar, Donnerstag

    Zeit Temperatur Niederschläge Wind Luftdruck Luftfeuchtigkeit
    00:00 +1°C° 0 mm 3 m/S 755 mmHg 91%
    01:00 0°C° 0 mm 3 m/S 755 mmHg 94%
    02:00 +1°C° 0 mm 3 m/S 755 mmHg 94%
    03:00 +1°C° 0 mm 3 m/S 755 mmHg 95%
    04:00 +2°C° 0 mm 2 m/S 755 mmHg 95%
    05:00 +1°C° 0.2 mm 3 m/S 755 mmHg 95%
    06:00 +2°C° 0.2 mm 3 m/S 755 mmHg 96%
    07:00 +2°C° 0.2 mm 3 m/S 755 mmHg 96%
    08:00 +2°C° 0.2 mm 3 m/S 755 mmHg 95%
    09:00 +3°C° 0.2 mm 4 m/S 755 mmHg 94%
    10:00 +3°C° 0.2 mm 4 m/S 755 mmHg 93%
    11:00 +3°C° 0.9 mm 4 m/S 754 mmHg 92%
    12:00 +4°C° 0.9 mm 4 m/S 754 mmHg 92%
    13:00 +4°C° 0.9 mm 4 m/S 754 mmHg 91%
    14:00 +3°C° 0.8 mm 5 m/S 754 mmHg 91%
    15:00 +3°C° 0.8 mm 5 m/S 753 mmHg 92%
    16:00 +3°C° 0.8 mm 5 m/S 753 mmHg 92%
    17:00 +4°C° 0.8 mm 4 m/S 753 mmHg 93%
    18:00 +4°C° 0.8 mm 4 m/S 753 mmHg 94%
    19:00 +4°C° 0.8 mm 4 m/S 752 mmHg 95%
    20:00 +4°C° 0.7 mm 4 m/S 752 mmHg 95%
    21:00 +4°C° 0.7 mm 4 m/S 752 mmHg 96%
    22:00 +4°C° 0.7 mm 4 m/S 752 mmHg 96%
    23:00 +2°C° 0.5 mm 5 m/S 753 mmHg 94%

    Morgen, 22 Februar, Freitag

    Zeit Temperatur Niederschläge Wind Luftdruck Luftfeuchtigkeit
    00:00 +1°C° 0.5 mm 6 m/S 753 mmHg 92%
    01:00 -1°C° 0.5 mm 7 m/S 754 mmHg 89%
    02:00 -2°C° 0.1 mm 7 m/S 755 mmHg 86%
    03:00 -3°C° 0.1 mm 7 m/S 756 mmHg 82%
    04:00 -4°C° 0.1 mm 6 m/S 757 mmHg 79%
    05:00 -4°C° 0 mm 6 m/S 758 mmHg 73%
    06:00 -5°C° 0 mm 6 m/S 760 mmHg 68%
    07:00 -5°C° 0 mm 6 m/S 761 mmHg 63%
    08:00 -5°C° 0 mm 6 m/S 762 mmHg 59%
    09:00 -5°C° 0 mm 5 m/S 763 mmHg 55%
    10:00 -4°C° 0 mm 5 m/S 764 mmHg 51%
    11:00 -4°C° 0 mm 5 m/S 765 mmHg 48%
    12:00 -3°C° 0 mm 4 m/S 765 mmHg 44%
    13:00 -2°C° 0 mm 4 m/S 766 mmHg 41%
    14:00 -2°C° 0 mm 4 m/S 766 mmHg 42%
    15:00 -3°C° 0 mm 4 m/S 767 mmHg 44%
    16:00 -3°C° 0 mm 4 m/S 767 mmHg 45%
    17:00 -3°C° 0 mm 4 m/S 767 mmHg 47%
    18:00 -4°C° 0 mm 4 m/S 768 mmHg 50%
    19:00 -5°C° 0 mm 3 m/S 768 mmHg 53%
    20:00 -5°C° 0 mm 3 m/S 769 mmHg 51%
    21:00 -5°C° 0 mm 3 m/S 769 mmHg 49%
    22:00 -5°C° 0 mm 3 m/S 770 mmHg 47%
    23:00 -5°C° 0 mm 3 m/S 770 mmHg 46%

    übermorgen, 23 Februar, Samstag

    Zeit Temperatur Niederschläge Wind Luftdruck Luftfeuchtigkeit
    00:00 -4°C° 0 mm 2 m/S 770 mmHg 44%
    01:00 -4°C° 0 mm 2 m/S 770 mmHg 42%
    02:00 -2°C° 0 mm 1 m/S 770 mmHg 42%
    03:00 -2°C° 0 mm 1 m/S 770 mmHg 42%
    04:00 -2°C° 0 mm 1 m/S 770 mmHg 43%
    05:00 -2°C° 0 mm 1 m/S 770 mmHg 43%
    06:00 -3°C° 0 mm 1 m/S 771 mmHg 44%
    07:00 -3°C° 0 mm 1 m/S 771 mmHg 44%
    08:00 -3°C° 0 mm 0 m/S 771 mmHg 41%
    09:00 -2°C° 0 mm 0 m/S 771 mmHg 38%
    10:00 -2°C° 0 mm 0 m/S 771 mmHg 34%
    11:00 -1°C° 0 mm 0 m/S 771 mmHg 32%
    12:00 0°C° 0 mm 1 m/S 771 mmHg 30%
    13:00 +1°C° 0 mm 1 m/S 771 mmHg 28%
    14:00 +1°C° 0 mm 1 m/S 770 mmHg 30%
    15:00 +1°C° 0 mm 1 m/S 770 mmHg 31%
    16:00 +1°C° 0 mm 1 m/S 770 mmHg 32%
    17:00 +1°C° 0 mm 1 m/S 770 mmHg 35%
    18:00 0°C° 0 mm 1 m/S 769 mmHg 37%
    19:00 0°C° 0 mm 1 m/S 769 mmHg 40%
    20:00 -2°C° 0 mm 2 m/S 769 mmHg 41%
    21:00 -2°C° 0 mm 2 m/S 769 mmHg 42%
    22:00 -2°C° 0 mm 2 m/S 769 mmHg 43%
    23:00 -2°C° 0 mm 2 m/S 769 mmHg 44%

    24 Februar, Sonntag

    Zeit Temperatur Niederschläge Wind Luftdruck Luftfeuchtigkeit
    00:00 -3°C° 0 mm 2 m/S 768 mmHg 44%
    01:00 -4°C° 0 mm 3 m/S 768 mmHg 45%
    02:00 -4°C° 0 mm 3 m/S 768 mmHg 45%
    03:00 -4°C° 0 mm 3 m/S 767 mmHg 45%
    04:00 -4°C° 0 mm 3 m/S 767 mmHg 44%
    05:00 -2°C° 0 mm 3 m/S 767 mmHg 45%
    06:00 -2°C° 0 mm 3 m/S 766 mmHg 45%
    07:00 -2°C° 0 mm 3 m/S 766 mmHg 45%
    08:00 -2°C° 0 mm 4 m/S 766 mmHg 45%
    09:00 -1°C° 0 mm 4 m/S 766 mmHg 44%
    10:00 0°C° 0 mm 4 m/S 765 mmHg 43%
    11:00 +1°C° 0 mm 4 m/S 765 mmHg 45%
    12:00 +3°C° 0 mm 4 m/S 765 mmHg 47%
    13:00 +4°C° 0 mm 4 m/S 764 mmHg 49%
    14:00 +3°C° 0 mm 4 m/S 764 mmHg 55%
    15:00 +3°C° 0 mm 3 m/S 763 mmHg 60%
    16:00 +2°C° 0 mm 3 m/S 763 mmHg 66%
    17:00 +2°C° 0 mm 3 m/S 763 mmHg 70%
    18:00 +1°C° 0 mm 3 m/S 762 mmHg 73%
    19:00 +1°C° 0 mm 3 m/S 762 mmHg 77%
    20:00 +1°C° 0 mm 3 m/S 762 mmHg 79%
    21:00 0°C° 0 mm 4 m/S 762 mmHg 80%
    22:00 0°C° 0 mm 4 m/S 761 mmHg 82%
    23:00 0°C° 0 mm 4 m/S 762 mmHg 85%

    25 Februar, Montag

    Zeit Temperatur Niederschläge Wind Luftdruck Luftfeuchtigkeit
    00:00 0°C° 0 mm 4 m/S 762 mmHg 89%
    01:00 0°C° 0 mm 4 m/S 762 mmHg 93%
    02:00 +1°C° 0 mm 5 m/S 762 mmHg 93%
    03:00 +1°C° 0 mm 5 m/S 762 mmHg 93%
    04:00 +1°C° 0 mm 5 m/S 763 mmHg 92%
    05:00 0°C° 0 mm 5 m/S 763 mmHg 92%
    06:00 0°C° 0 mm 5 m/S 764 mmHg 91%
    07:00 -1°C° 0 mm 5 m/S 764 mmHg 90%
    08:00 0°C° 0 mm 5 m/S 765 mmHg 84%
    09:00 +1°C° 0 mm 6 m/S 765 mmHg 79%
    10:00 +2°C° 0 mm 6 m/S 766 mmHg 73%
    11:00 +3°C° 0 mm 6 m/S 766 mmHg 68%
    12:00 +5°C° 0 mm 5 m/S 766 mmHg 63%
    13:00 +6°C° 0 mm 5 m/S 766 mmHg 58%
    14:00 +6°C° 0 mm 5 m/S 765 mmHg 59%
    15:00 +5°C° 0 mm 4 m/S 765 mmHg 59%
    16:00 +5°C° 0 mm 3 m/S 765 mmHg 60%
    17:00 +4°C° 0 mm 3 m/S 765 mmHg 64%
    18:00 +3°C° 0 mm 3 m/S 765 mmHg 68%
    19:00 +2°C° 0 mm 3 m/S 766 mmHg 73%
    20:00 +2°C° 0 mm 3 m/S 765 mmHg 75%
    21:00 +1°C° 0 mm 3 m/S 765 mmHg 76%
    22:00 +1°C° 0 mm 3 m/S 764 mmHg 78%
    23:00 +1°C° 0 mm 3 m/S 763 mmHg 77%

    26 Februar, Dienstag

    Zeit Temperatur Niederschläge Wind Luftdruck Luftfeuchtigkeit
    00:00 0°C° 0 mm 4 m/S 763 mmHg 76%
    01:00 0°C° 0 mm 5 m/S 762 mmHg 75%
    02:00 0°C° 0 mm 5 m/S 761 mmHg 79%
    03:00 0°C° 0 mm 5 m/S 760 mmHg 82%
    04:00 0°C° 0 mm 5 m/S 760 mmHg 85%
    05:00 +1°C° 0 mm 5 m/S 759 mmHg 87%
    06:00 +1°C° 0 mm 5 m/S 759 mmHg 88%
    07:00 +1°C° 0 mm 5 m/S 759 mmHg 90%
    08:00 +2°C° 0 mm 5 m/S 758 mmHg 85%
    09:00 +3°C° 0 mm 5 m/S 758 mmHg 80%
    10:00 +3°C° 0 mm 5 m/S 758 mmHg 75%
    11:00 +5°C° 0 mm 5 m/S 757 mmHg 71%
    12:00 +6°C° 0 mm 5 m/S 757 mmHg 67%
    13:00 +7°C° 0 mm 6 m/S 756 mmHg 63%
    14:00 +8°C° 0 mm 5 m/S 756 mmHg 64%
    15:00 +8°C° 0 mm 5 m/S 755 mmHg 65%
    16:00 +8°C° 0 mm 5 m/S 755 mmHg 66%
    17:00 +7°C° 0 mm 5 m/S 755 mmHg 71%
    18:00 +6°C° 0 mm 4 m/S 755 mmHg 77%
    19:00 +5°C° 0 mm 4 m/S 755 mmHg 82%
    20:00 +4°C° 0 mm 4 m/S 755 mmHg 86%
    21:00 +4°C° 0 mm 4 m/S 755 mmHg 89%
    22:00 +3°C° 0 mm 4 m/S 756 mmHg 92%
    23:00 +3°C° 0 mm 4 m/S 756 mmHg 93%
    Mehr zeigen